FW1460 Somerset MA US current weather conditions

sailwx.info

Wind from 174 at 6 knots gusting 10

Air temperature 33.9° C
Dewpoint 22.9° C

Last reported at 2020-Aug-10 18:00 UTC.
Time now 2020-Aug-10 19:07 UTC

Location: N 41°46' W 071°09'.
View on Google Maps.

See reports from other nearby stations

  
Tides and Currents Weather Stations Pressure Air Temp Water Temp Dewpoint Dewpoint Depression Visibility Wind Speed Wind Dir Waves Ship Positions
date/time (UTC)wind fromknots sea level pressurealtimeterstation pressurevisibilityair tempwater tempwave heightnotes
2020-Aug-10 18:00 174 6 gusting 10 33.9
2020-Aug-10 17:45 195 5 gusting 10 33.9
2020-Aug-10 17:30 209 3 gusting 12 33.9
2020-Aug-10 17:15 178 3 gusting 7 33.3
2020-Aug-10 17:00 194 2 gusting 10 33.3
2020-Aug-10 16:46 189 2 gusting 6 32.8
2020-Aug-10 16:16 156 2 gusting 6 32.8
2020-Aug-10 16:01 238 1 gusting 9 32.2
2020-Aug-10 15:31 159 1 gusting 6 32.2
2020-Aug-10 15:16 154 3 gusting 7 31.7
2020-Aug-10 15:01 166 2 gusting 6 31.1
2020-Aug-10 14:46 211 2 gusting 6 30.6
2020-Aug-10 14:31 305 0 gusting 6 30.0
2020-Aug-10 14:16 186 0 gusting 6 30.0
2020-Aug-10 14:01 180 0 gusting 6 29.4
2020-Aug-10 13:46 214 1 gusting 6 28.9
2020-Aug-10 13:32 157 0 gusting 6 28.3
2020-Aug-10 13:16 167 0 gusting 4 27.8
2020-Aug-10 13:01 206 26.7
2020-Aug-10 12:45 167 2 gusting 6 26.1
2020-Aug-10 12:30 204 1 gusting 5 25.0
2020-Aug-10 12:15 196 1 gusting 6 24.4
2020-Aug-10 12:00 213 2 gusting 6 23.3
2020-Aug-10 11:45 226 22.8
2020-Aug-10 11:30 200 22.8
2020-Aug-10 11:16 197 22.8
2020-Aug-10 11:03 184 0 gusting 4 22.2
2020-Aug-10 10:46 190 21.7
2020-Aug-10 10:31 201 0 gusting 3 21.7
2020-Aug-10 10:16 165 21.7
2020-Aug-10 10:01 165 21.7
2020-Aug-10 09:46 188 21.7
2020-Aug-10 09:31 193 21.7
2020-Aug-10 09:16 210 21.7
2020-Aug-10 09:01 210 21.7
2020-Aug-10 08:46 210 21.7
2020-Aug-10 08:31 184 0 gusting 4 21.7
2020-Aug-10 08:16 202 0 gusting 3 21.7
2020-Aug-10 08:01 199 1 gusting 6 21.7
2020-Aug-10 07:46 205 1 gusting 6 21.7
2020-Aug-10 07:32 234 0 gusting 5 21.7
2020-Aug-10 07:16 202 1 gusting 4 21.7
2020-Aug-10 07:01 204 1 gusting 4 21.7
2020-Aug-10 06:46 205 0 gusting 6 21.7
2020-Aug-10 06:31 192 1 gusting 4 22.2
2020-Aug-10 06:16 186 0 gusting 4 22.2
2020-Aug-10 06:01 202 22.2
2020-Aug-10 05:46 205 0 gusting 6 22.2
2020-Aug-10 05:31 203 0 gusting 6 22.2
2020-Aug-10 05:16 207 0 gusting 4 22.2
2020-Aug-10 05:01 200 0 gusting 6 22.2
2020-Aug-10 04:46 192 1 gusting 5 22.2
2020-Aug-10 04:31 209 2 gusting 6 22.2
2020-Aug-10 04:16 180 22.2
2020-Aug-10 04:00 193 22.2
2020-Aug-10 03:45 211 22.2
2020-Aug-10 03:30 216 22.2
2020-Aug-10 03:16 176 22.2
2020-Aug-10 03:01 184 22.8
2020-Aug-10 02:45 175 22.8
2020-Aug-10 02:31 182 22.8
2020-Aug-10 02:15 193 1 gusting 8 22.8
2020-Aug-10 02:00 197 22.8
2020-Aug-10 01:45 194 1 gusting 13 22.8
2020-Aug-10 01:30 202 2 gusting 7 22.8
2020-Aug-10 01:15 183 2 gusting 8 22.8
2020-Aug-10 01:00 200 2 gusting 8 23.3
2020-Aug-10 00:45 196 2 gusting 7 23.3
2020-Aug-10 00:30 201 1 gusting 6 23.9
2020-Aug-10 00:16 199 2 gusting 8 23.9
2020-Aug-10 00:01 193 1 gusting 6 23.9
2020-Aug-09 23:45 184 4 gusting 8 24.4
2020-Aug-09 23:30 211 3 gusting 8 24.4
2020-Aug-09 23:15 177 3 gusting 8 25.0
2020-Aug-09 22:45 195 6 gusting 10 25.6
2020-Aug-09 22:30 231 5 gusting 10 26.1
2020-Aug-09 22:15 209 5 gusting 12 26.1
2020-Aug-09 22:00 186 5 gusting 13 26.7
2020-Aug-09 21:45 182 5 gusting 16 26.7
2020-Aug-09 21:30 148 6 gusting 14 26.7
2020-Aug-09 21:16 182 6 gusting 16 27.2
2020-Aug-09 21:00 192 6 gusting 13 27.8
2020-Aug-09 20:45 190 5 gusting 15 27.8
2020-Aug-09 20:30 160 6 gusting 16 28.3
2020-Aug-09 20:15 238 6 gusting 12 28.9
2020-Aug-09 20:00 198 5 gusting 10 28.9
2020-Aug-09 19:45 164 6 gusting 12 28.9
2020-Aug-09 19:30 178 6 gusting 12 29.4
2020-Aug-09 19:16 209 6 gusting 13 29.4
2020-Aug-09 19:01 202 6 gusting 11 28.9
2020-Aug-09 18:31 196 3 gusting 13 29.4
2020-Aug-09 18:16 217 3 gusting 13 29.4
2020-Aug-09 18:00 163 5 gusting 10 30.6
2020-Aug-09 17:45 294 2 gusting 9 31.1
2020-Aug-09 17:30 174 5 gusting 9 30.0
2020-Aug-09 17:15 196 2 gusting 8 31.1
2020-Aug-09 17:00 209 3 gusting 10 31.1
2020-Aug-09 16:45 163 5 gusting 10 30.6
2020-Aug-09 16:30 168 3 gusting 7 30.6
2020-Aug-09 16:15 206 2 gusting 7 29.4
2020-Aug-09 16:00 238 3 gusting 7 28.9
2020-Aug-09 15:47 167 3 gusting 8 28.9
2020-Aug-09 15:31 136 3 gusting 10 28.3
2020-Aug-09 15:16 206 3 gusting 7 27.8
2020-Aug-09 15:02 153 2 gusting 6 28.9
2020-Aug-09 14:46 199 3 gusting 7 28.3
2020-Aug-09 14:32 225 2 gusting 6 27.8
2020-Aug-09 14:16 191 2 gusting 5 27.2
2020-Aug-09 14:01 180 2 gusting 6 26.7
2020-Aug-09 13:46 175 3 gusting 8 25.6
2020-Aug-09 13:31 172 3 gusting 6 25.0
2020-Aug-09 13:15 237 1 gusting 5 23.9
2020-Aug-09 13:02 167 2 gusting 9 23.9
2020-Aug-09 12:45 172 2 gusting 6 23.9
2020-Aug-09 12:30 192 1 gusting 5 23.9
2020-Aug-09 12:16 208 2 gusting 6 23.3
2020-Aug-09 12:00 175 2 gusting 7 22.2
2020-Aug-09 11:45 209 2 gusting 6 21.7
2020-Aug-09 11:30 195 1 gusting 6 20.6
2020-Aug-09 11:15 187 0 gusting 6 20.6
2020-Aug-09 11:00 188 0 gusting 4 20.0
2020-Aug-09 10:45 203 20.0
2020-Aug-09 10:30 202 20.0
2020-Aug-09 10:15 202 20.0
2020-Aug-09 10:00 206 0 gusting 5 20.0
2020-Aug-09 09:45 212 0 gusting 3 19.4
2020-Aug-09 09:30 206 19.4
2020-Aug-09 09:15 206 19.4
2020-Aug-09 09:00 206 19.4
2020-Aug-09 08:45 206 19.4
2020-Aug-09 08:30 206 19.4
2020-Aug-09 08:15 206 19.4
2020-Aug-09 08:00 206 19.4
2020-Aug-09 07:45 206 19.4
2020-Aug-09 07:31 206 20.0
2020-Aug-09 07:18 206 20.0
2020-Aug-09 07:03 202 20.0
2020-Aug-09 06:46 190 20.0
2020-Aug-09 06:32 189 20.0
2020-Aug-09 06:17 194 20.0
2020-Aug-09 06:02 194 20.0
2020-Aug-09 05:46 194 20.0
2020-Aug-09 05:31 194 20.6
2020-Aug-09 05:16 194 20.6
2020-Aug-09 05:01 194 20.6
2020-Aug-09 04:47 194 20.6
2020-Aug-09 04:31 194 0 gusting 2 21.1
2020-Aug-09 04:16 194 21.1
2020-Aug-09 04:01 194 21.1
2020-Aug-09 03:47 193 21.7
2020-Aug-09 03:31 195 21.7
2020-Aug-09 03:16 205 21.7
2020-Aug-09 03:00 196 22.2
2020-Aug-09 02:46 198 0 gusting 5 22.2
2020-Aug-09 02:31 163 0 gusting 4 22.2
2020-Aug-09 02:16 194 0 gusting 6 22.2
2020-Aug-09 02:01 169 0 gusting 6 22.2
2020-Aug-09 01:45 224 2 gusting 8 22.2
2020-Aug-09 01:30 200 1 gusting 6 22.2
2020-Aug-09 01:17 189 1 gusting 6 22.2
2020-Aug-09 01:00 167 22.2
2020-Aug-09 00:31 160 0 gusting 4 22.8
2020-Aug-09 00:16 164 2 gusting 7 22.8
2020-Aug-09 00:01 164 3 gusting 6 23.3
2020-Aug-08 23:45 163 1 gusting 7 23.3
2020-Aug-08 23:30 215 3 gusting 8 24.4
2020-Aug-08 23:16 167 3 gusting 8 25.0
2020-Aug-08 23:00 143 3 gusting 8 25.6
2020-Aug-08 22:45 172 3 gusting 9 26.1
2020-Aug-08 22:30 165 5 gusting 11 26.7
2020-Aug-08 22:15 161 1 gusting 9 26.7
2020-Aug-08 22:01 166 2 gusting 8 27.2
2020-Aug-08 21:45 204 3 gusting 7 27.2
2020-Aug-08 21:31 167 1 gusting 5 27.8
2020-Aug-08 21:15 138 0 gusting 7 28.3
2020-Aug-08 21:01 138 4 gusting 7 28.3
2020-Aug-08 20:45 194 3 gusting 6 28.9
2020-Aug-08 20:30 188 3 gusting 7 28.9
2020-Aug-08 20:15 157 1 gusting 6 28.3
2020-Aug-08 20:00 151 2 gusting 5 28.9
2020-Aug-08 19:45 022 29.4
2020-Aug-08 19:30 048 28.9
2020-Aug-08 19:15 074 28.9
2020-Aug-08 19:02 060 29.4